Simultaneous Nadir Overpasses (SNOs) Predictions

Prediction of SNOs between METOP-A and NOAA-19 Satellite Orbit:

Table of predicted SNOs for the next 14.0 days since TLE Epoch: 11/27/2021
Index Date (METOP-A) Time (METOP-A) Lat,Lon (METOP-A) SZA (METOP-A ) Date (NOAA-19) Time (NOAA-19) Lat,Lon (NOAA-19) SZA (NOAA-19 ) Distance(km) Time Diff (sec)
1 11/28/2021 16:42:24 80.00, -75.45 101.37 11/28/2021 16:42:17 79.99, -75.52 101.36 1.61 7
2 11/30/2021 17:09:58 -79.99, 97.70 78.31 11/30/2021 17:09:26 -80.00, 97.86 78.30 2.94 32
3 11/30/2021 17:59:15 80.05, -94.08 101.76 11/30/2021 18:00:18 80.06, -94.02 101.77 1.44 63
4 12/02/2021 17:37:38 79.92, -89.77 101.93 12/02/2021 17:36:28 79.91, -89.90 101.93 2.87 70
5 12/02/2021 18:26:41 -80.07, 79.30 77.93 12/02/2021 18:27:27 -80.07, 79.41 77.93 1.99 46
6 12/04/2021 18:54:28 80.00,-108.18 102.29 12/04/2021 18:54:28 80.01,-108.12 102.29 1.27 0
7 12/06/2021 19:21:40 -80.00, 65.11 77.47 12/06/2021 19:21:38 -80.00, 65.07 77.47 0.92 2
8 12/06/2021 20:11:18 80.07,-126.62 102.61 12/06/2021 20:12:29 80.07,-126.64 102.61 0.22 71
9 12/08/2021 19:49:42 79.93,-122.46 102.68 12/08/2021 19:48:40 79.92,-122.53 102.68 1.37 62
10 12/08/2021 20:37:26 -81.41, 68.07 75.38 12/08/2021 20:38:37 -80.87, 68.63 75.85 60.68 71
11 12/10/2021 20:16:40 -79.95, 51.02 77.12 12/10/2021 20:15:49 -79.94, 50.98 77.12 0.88 51



Historial Predications of SNOs between METOP-A and NOAA-19
